Regional Weather Roundup
Issued by NWS Little Rock, AR

Home | Current Version | Previous Version | Text Only | Print | Product List | Glossary On
Versions: 1 2 3 4 5 6 7 8 9 10 11 12 13 14 15 16 17 18 19 20 21 22 23 24 25 26 27 28 29 30 31 32 33 34 35 36 37 38 39 40 41 42 43 44 45 46 47 48 49 50
000
ASUS44 KLZK 211605
RWRLZK

WEATHER ROUNDUP FOR ARKANSAS
NATIONAL WEATHER SERVICE LITTLE ROCK AR
1100 AM CDT SUN SEP 21 2014

NOTE: "FAIR" INDICATES FEW OR NO CLOUDS BELOW 12,000 FEET WITH NO
SIGNIFICANT WEATHER AND/OR OBSTRUCTIONS TO VISIBILITY.

ARZ001-003-010-029-211700-
NORTHWEST ARKANSAS

CITY           SKY/WX    TMP DP  RH WIND       PRES   REMARKS
FAYETTEVILLE   LGT RAIN  72  69  90 N5        30.14S
FORT SMITH     CLOUDY    80  69  69 NW5       30.10S
HARRISON       CLOUDY    74  69  85 NW7       30.13R
BENTONVILLE    PTSUNNY   72  66  83 NE7       30.16R
ROGERS         PTSUNNY   73  64  73 N10       30.17R
SILOAM SPGS    CLOUDY    72  64  78 N12       30.16R
HIGHFILL       PTSUNNY   72  69  90 N13       30.15R
SPRINGDALE     LGT RAIN  72  70  94 N7        30.17R FOG
$$

ARZ004-005-016-211700-
NORTH CENTRAL ARKANSAS

CITY           SKY/WX    TMP DP  RH WIND       PRES   REMARKS
BATESVILLE     PTSUNNY   81  70  69 W7        30.06S
FLIPPIN        PTSUNNY   75  66  73 N9        30.11R
MTN HOME       CLOUDY    75  69  81 CALM      30.10R
$$

ARZ040-041-211700-
WEST CENTRAL ARKANSAS

CITY           SKY/WX    TMP DP  RH WIND       PRES   REMARKS
MENA           MOSUNNY   84  72  65 CALM      30.13R HX  89
MOUNT IDA      SUNNY     84  70  62 CALM      30.08R HX  88
$$

ARZ009-017-025-026-028-211700-
NORTHEAST ARKANSAS

CITY           SKY/WX    TMP DP  RH WIND       PRES   REMARKS
CORNING          N/A     81  72  74 N12       30.04S
JONESBORO      PTSUNNY   82  69  64 W12       30.04S HX  85
NEWPORT        PTSUNNY   82  70  67 NW12      30.05S HX  86
WALNUT RIDGE   MOSUNNY   79  63  57 NW12G17   30.03S
BLYTHEVILLE    MOSUNNY   83  72  69 W9        30.03S HX  88
$$

ARZ022-023-033-042-044-211700-
CENTRAL ARKANSAS

CITY           SKY/WX    TMP DP  RH WIND       PRES   REMARKS
LITTLE ROCK    PTSUNNY   87  68  52 NW8       30.06S HX  90
N LITTLE ROCK  PTSUNNY   85  72  64 NW6       30.06S HX  90
JACKSONVILLE   MOSUNNY   86  70  59 W6        30.07R HX  90
SEARCY         PTSUNNY   86  69  56 NW7       30.06S HX  90
HOT SPRINGS    SUNNY     84  70  62 W7        30.09R HX  88
RUSSELLVILLE   PTSUNNY   81  71  71 NW6       30.09R HX  85
CLINTON        FAIR      75  72  88 CALM      30.08F
$$

ARZ036-211700-
EAST ARKANSAS

CITY           SKY/WX    TMP DP  RH WIND       PRES   REMARKS
WEST MEMPHIS   PTSUNNY   85  70  60 VRB5      30.02F HX  89
$$

ARZ050-053-066-070-073-211700-
SOUTHWEST ARKANSAS

CITY           SKY/WX    TMP DP  RH WIND       PRES   REMARKS
ARKADELPHIA    LGT RAIN  87  73  62 CALM      30.08S HX  94
CAMDEN         SUNNY     90  68  48 N3        30.07S HX  93
TEXARKANA      SUNNY     86  70  58 NW5       30.09R HX  90
EL DORADO      SUNNY     86  70  58 NW7       30.08R HX  90
DE QUEEN       SUNNY     82  72  71 CALM      30.08R HX  87
$$

ARZ056-057-069-211700-
SOUTHEAST ARKANSAS

CITY           SKY/WX    TMP DP  RH WIND       PRES   REMARKS
PINE BLUFF     SUNNY     87  67  51 NW9       30.07R HX  90
STUTTGART      SUNNY     88  72  58 W8        30.07S HX  94
MONTICELLO     SUNNY     87  67  51 VRB7      30.06S HX  90

$$





USA.gov is the U.S. government's official web portal to all federal, state and local government web resources and services.